Weather History for KJYM - April, 2013

Change the Weather History Date:

Wednesday, April 17, 2013

  Actual Average Record
Temperature  
Mean Temperature 48 °F -  
Max Temperature 55 °F 62 °F 82 °F (1964)
Min Temperature 41 °F 36 °F 20 °F (1983)
Degree Days  
Heating Degree Days 17    
Moisture  
Dew Point 36 °F    
Average Humidity 65    
Maximum Humidity 94    
Minimum Humidity 53    
Precipitation  
Precipitation 0.00 in - - ()
Sea Level Pressure  
Sea Level Pressure 30.19 in    
Wind  
Wind Speed 10 mph (East)    
Max Wind Speed 28 mph    
Max Gust Speed 31 mph    
Visibility 9 miles    
Events Rain    
Averages and records for this station are not official NWS values.
T = Trace of Precipitation, MM = Missing Value Source: NWS Daily Summary

Daily Weather History Graph

Daily Weather History Graph

Search for Another Location

Airport or City:

Trip Planner

Search our weather history database for the weather conditions in past years. The results will help you decide how hot, cold, wet, or windy it might be!

Date:

Astronomy

Apr. 17, 2013 Rise Set
Actual Time 6:54 AM EDT 8:21 PM EDT
Civil Twilight 6:25 AM EDT 8:51 PM EDT
Nautical Twilight 5:50 AM EDT 9:26 PM EDT
Astronomical Twilight 5:13 AM EDT 10:03 PM EDT
Moon 12:05 PM EDT (4/17) 2:01 AM EDT (4/17)
Length of Visible Light 14h 25m
Length of Day
13h 27m
Waxing Crescent, 42% of the Moon is Illuminated
Apr 17
Waxing Crescent
Apr 18
First Quarter
Apr 25
Full
May 2
Last Quarter
May 9
New

Hourly Weather History & Observations

Time (EDT) Temp. Windchill Dew Point Humidity Pressure Visibility Wind Dir Wind Speed Gust Speed Precip Events Conditions
12:15 AM 46.8 °F - 33.6 °F 60% 30.22 in 10.0 mi North 3.5 mph - N/A   Scattered Clouds
12:34 AM 46.8 °F - 33.3 °F 59% 30.21 in 10.0 mi North 3.5 mph - N/A   Mostly Cloudy
12:55 AM 46.2 °F - 35.1 °F 65% 30.23 in 10.0 mi Calm Calm - N/A   Mostly Cloudy
1:14 AM 47.1 °F - 34.7 °F 62% 30.23 in 10.0 mi North 3.5 mph - N/A   Overcast
1:34 AM 47.1 °F - 34.7 °F 62% 30.23 in 10.0 mi North 6.9 mph - N/A   Overcast
1:55 AM 47.1 °F - 34.3 °F 61% 30.23 in 10.0 mi NNE 4.6 mph - N/A   Overcast
2:14 AM 47.1 °F - 34.2 °F 61% 30.22 in 10.0 mi NNE 6.9 mph - N/A   Overcast
2:34 AM 47.5 °F - 34.2 °F 60% 30.24 in 10.0 mi North 4.6 mph - N/A   Overcast
2:55 AM 47.1 °F - 34.2 °F 61% 30.25 in 10.0 mi NNE 5.8 mph - N/A   Overcast
3:14 AM 47.5 °F - 34.2 °F 60% 30.24 in 10.0 mi NE 5.8 mph - N/A   Overcast
3:35 AM 47.1 °F - 34.2 °F 61% 30.25 in 10.0 mi NE 8.1 mph - N/A   Mostly Cloudy
3:55 AM 47.1 °F - 34.3 °F 61% 30.26 in 10.0 mi NE 9.2 mph - N/A   Overcast
4:14 AM 46.8 °F - 34.9 °F 63% 30.26 in 10.0 mi NE 9.2 mph - N/A   Overcast
4:35 AM 46.8 °F - 35.6 °F 65% 30.27 in 10.0 mi ENE 9.2 mph 16.1 mph N/A   Overcast
4:55 AM 46.0 °F 42.5 °F 35.6 °F 67% 30.27 in 10.0 mi ENE 6.9 mph - N/A   Overcast
5:14 AM 45.1 °F 38.8 °F 33.4 °F 64% 30.26 in 10.0 mi ENE 13.8 mph - N/A   Scattered Clouds
5:34 AM 44.2 °F 38.4 °F 32.4 °F 63% 30.27 in 10.0 mi ENE 11.5 mph 16.1 mph N/A   Scattered Clouds
5:53 AM 43.3 °F 37.2 °F 32.0 °F 64% 30.27 in 10.0 mi ENE 11.5 mph - N/A   Scattered Clouds
6:14 AM 43.3 °F 38.1 °F 31.6 °F 63% 30.28 in 10.0 mi ENE 9.2 mph - N/A   Mostly Cloudy
6:35 AM 42.4 °F 36.5 °F 30.7 °F 63% 30.28 in 10.0 mi ENE 10.4 mph - N/A   Scattered Clouds
6:54 AM 41.9 °F 36.9 °F 30.4 °F 64% 30.29 in 10.0 mi ENE 8.1 mph - N/A   Clear
7:14 AM 41.7 °F 36.1 °F 30.4 °F 64% 30.28 in 10.0 mi NE 9.2 mph - N/A   Clear
7:35 AM 42.3 °F 36.3 °F 30.9 °F 64% 30.28 in 10.0 mi ENE 10.4 mph - N/A   Scattered Clouds
7:54 AM 43.0 °F 36.0 °F 31.3 °F 63% 30.27 in 10.0 mi East 13.8 mph - N/A   Mostly Cloudy
8:15 AM 43.0 °F 35.1 °F 30.9 °F 62% 30.26 in 10.0 mi East 17.3 mph 23.0 mph N/A   Mostly Cloudy
8:34 AM 44.4 °F 37.5 °F 30.9 °F 59% 30.27 in 10.0 mi East 15.0 mph 21.9 mph N/A   Scattered Clouds
8:55 AM 45.9 °F 40.0 °F 31.5 °F 57% 30.28 in 10.0 mi East 12.7 mph 23.0 mph N/A   Scattered Clouds
9:15 AM 46.9 °F - 32.2 °F 57% 30.28 in 10.0 mi East 11.5 mph - N/A   Clear
9:34 AM 47.1 °F - 32.5 °F 57% 30.27 in 10.0 mi East 17.3 mph - N/A   Clear
10:15 AM 48.9 °F - 33.8 °F 56% 30.27 in 10.0 mi East 17.3 mph 21.9 mph N/A   Clear
10:34 AM 49.5 °F - 34.0 °F 55% 30.27 in 10.0 mi East 19.6 mph 25.3 mph N/A   Clear
10:55 AM 50.0 °F - 34.7 °F 56% 30.25 in 10.0 mi East 16.1 mph - N/A   Clear
11:14 AM 50.5 °F - 34.7 °F 55% 30.26 in 10.0 mi ESE 17.3 mph - N/A   Clear
11:34 AM 51.3 °F - 35.4 °F 55% 30.27 in 10.0 mi East 15.0 mph 19.6 mph N/A   Clear
11:55 AM 52.7 °F - 36.5 °F 54% 30.27 in 10.0 mi East 16.1 mph 24.2 mph N/A   Clear
12:14 PM 54.1 °F - 37.4 °F 53% 30.26 in 10.0 mi East 17.3 mph - N/A   Scattered Clouds
12:34 PM 53.1 °F - 37.6 °F 56% 30.25 in 10.0 mi East 15.0 mph 23.0 mph N/A   Mostly Cloudy
12:55 PM 52.7 °F - 37.4 °F 56% 30.26 in 10.0 mi ESE 13.8 mph - N/A   Mostly Cloudy
1:14 PM 53.1 °F - 37.4 °F 55% 30.25 in 10.0 mi East 15.0 mph - N/A   Scattered Clouds
1:35 PM 53.8 °F - 37.4 °F 54% 30.24 in 10.0 mi East 17.3 mph 20.7 mph N/A   Scattered Clouds
1:55 PM 54.7 °F - 38.1 °F 54% 30.20 in 10.0 mi East 19.6 mph 25.3 mph N/A   Clear
2:14 PM 55.0 °F - 38.3 °F 53% 30.21 in 10.0 mi East 18.4 mph 24.2 mph N/A   Scattered Clouds
2:35 PM 54.0 °F - 37.6 °F 54% 30.19 in 10.0 mi East 18.4 mph 23.0 mph N/A   Scattered Clouds
2:55 PM 53.8 °F - 37.9 °F 55% 30.17 in 10.0 mi East 19.6 mph 25.3 mph N/A   Mostly Cloudy
3:14 PM 53.1 °F - 37.6 °F 56% 30.16 in 10.0 mi ESE 17.3 mph 24.2 mph N/A   Overcast
3:35 PM 52.2 °F - 37.2 °F 57% 30.15 in 10.0 mi East 19.6 mph 27.6 mph N/A   Overcast
3:55 PM 50.2 °F - 38.7 °F 65% 30.16 in 4.0 mi ESE 12.7 mph - N/A Rain Rain
4:35 PM 47.7 °F - 40.8 °F 77% 30.12 in 10.0 mi East 18.4 mph 24.2 mph N/A   Overcast
4:54 PM 47.5 °F - 41.2 °F 79% 30.11 in 10.0 mi East 18.4 mph 25.3 mph N/A   Overcast
5:14 PM 47.3 °F - 40.5 °F 77% 30.10 in 10.0 mi East 13.8 mph - N/A   Overcast
5:34 PM 47.5 °F - 40.1 °F 76% 30.09 in 10.0 mi East 15.0 mph - N/A   Overcast
5:54 PM 48.6 °F - 35.2 °F 60% 30.08 in 10.0 mi ESE 17.3 mph 24.2 mph N/A   Overcast
6:15 PM 48.0 °F - 35.8 °F 63% 30.08 in 10.0 mi East 12.7 mph - N/A   Overcast
6:34 PM 47.7 °F - 34.9 °F 61% 30.09 in 7.0 mi ESE 17.3 mph 23.0 mph N/A Rain Light Rain
6:54 PM 46.9 °F - 34.7 °F 62% 30.08 in 10.0 mi ESE 17.3 mph - N/A   Overcast
7:15 PM 46.9 °F - 34.3 °F 62% 30.06 in 10.0 mi East 17.3 mph 23.0 mph N/A   Overcast
7:34 PM 47.3 °F - 33.1 °F 58% 30.06 in 10.0 mi ESE 15.0 mph 23.0 mph N/A   Overcast
7:55 PM 47.3 °F - 33.3 °F 58% 30.07 in 10.0 mi East 16.1 mph 19.6 mph N/A   Overcast
8:15 PM 46.8 °F - 34.3 °F 62% 30.07 in 10.0 mi East 16.1 mph 21.9 mph N/A   Overcast
8:34 PM 46.8 °F - 34.5 °F 62% 30.07 in 10.0 mi East 12.7 mph - N/A   Overcast
8:55 PM 46.8 °F - 34.7 °F 63% 30.06 in 10.0 mi ENE 18.4 mph 24.2 mph N/A   Overcast
9:15 PM 45.1 °F 39.1 °F 40.5 °F 84% 30.10 in 5.0 mi NNW 12.7 mph 21.9 mph N/A Rain Light Rain
9:34 PM 45.7 °F 41.0 °F 42.8 °F 90% 30.11 in 2.5 mi NE 9.2 mph - N/A   Overcast
9:55 PM 45.0 °F 35.6 °F 42.6 °F 91% 30.06 in 1.2 mi East 27.6 mph 31.1 mph N/A   Overcast
10:15 PM 44.4 °F 37.9 °F 42.4 °F 93% 30.13 in 0.8 mi East 13.8 mph 17.3 mph N/A   Overcast
10:34 PM 44.8 °F 36.4 °F 43.0 °F 93% 30.09 in 2.5 mi ESE 21.9 mph - N/A   Overcast
10:55 PM 44.2 °F 37.0 °F 42.6 °F 94% 30.05 in 2.0 mi East 16.1 mph - N/A   Overcast
11:14 PM 44.4 °F 37.2 °F 42.4 °F 93% 30.02 in 7.0 mi ESE 16.1 mph 25.3 mph N/A   Overcast
11:34 PM 43.7 °F 36.3 °F 41.5 °F 92% 30.02 in 2.0 mi East 16.1 mph - N/A Rain Light Rain
11:55 PM 43.5 °F 35.8 °F 41.5 °F 93% 29.98 in 7.0 mi ESE 17.3 mph 27.6 mph N/A Rain Light Rain